DW9064 Weather Reports


Display with metric or nautical units.
time (UTC)temp
F
wind
direction
speed
MPH
gust
MPH
rain 1hr
in
rain 24hr
in
rain mn
in
humidity
%
barometer
mb
20260906231323 77 110 2.0 6.0 0.00 0.02 0.00 31 1011.6
20260906230424 76 73 1.0 4.0 0.00 0.02 0.00 32 1011.7
20260906225525 76 63 1.0 5.0 0.00 0.02 0.00 32 1011.7
20260906224623 76 97 2.0 6.0 0.00 0.02 0.00 32 1011.8
20260906223723 75 114 2.0 5.0 0.00 0.02 0.00 32 1011.8
20260906222823 74 135 2.0 6.0 0.00 0.02 0.00 34 1011.9
20260906221023 72 152 1.0 5.0 0.00 0.02 0.00 39 1012.0
20260906220123 71 170 4.0 7.0 0.00 0.02 0.00 39 1012.3
20260906215225 70 182 4.0 7.0 0.00 0.02 0.00 41 1012.3
20260906214323 70 193 4.0 9.0 0.00 0.02 0.00 40 1012.3
20260906213423 70 182 4.0 8.0 0.00 0.02 0.00 41 1012.6
20260906211623 70 148 4.0 5.0 0.00 0.02 0.00 41 1012.7
20260906210723 71 159 1.0 5.0 0.00 0.02 0.00 39 1012.9
20260906205823 72 129 4.0 5.0 0.00 0.02 0.00 38 1013.1
20260906204923 72 123 0.0 6.0 0.00 0.02 0.00 38 1013.0
20260906204023 72 131 4.0 7.0 0.00 0.02 0.00 38 1013.2
20260906203123 72 141 1.0 5.0 0.00 0.02 0.00 40 1013.2
20260906202223 71 84 3.0 7.0 0.00 0.02 0.00 40 1013.3
20260906201323 70 130 4.0 8.0 0.00 0.02 0.00 42 1013.5
20260906200423 70 102 4.0 8.0 0.00 0.02 0.00 43 1013.4
20260906194623 67 121 4.0 8.0 0.00 0.02 0.00 48 1013.7
20260906193723 67 90 2.0 8.0 0.00 0.02 0.00 50 1013.7
20260906192823 67 77 4.0 7.0 0.00 0.02 0.00 49 1013.8
20260906191923 67 63 4.0 8.0 0.00 0.02 0.00 50 1014.2
20260906190123 68 91 2.0 8.0 0.00 0.02 0.00 50 1014.4
20260906185223 66 128 1.0 7.0 0.00 0.02 0.00 53 1014.6
20260906183423 63 94 2.0 8.0 0.00 0.02 0.00 55 1014.9
20260906180723 64 66 2.0 10.0 0.00 0.02 0.00 55 1015.1
20260906175823 62 58 3.0 7.0 0.00 0.02 0.00 59 1015.2
20260906174923 62 104 1.0 7.0 0.00 0.02 0.00 59 1015.4
20260906174023 63 100 3.0 8.0 0.00 0.02 0.00 56 1015.5
20260906173123 62 95 3.0 8.0 0.00 0.02 0.00 58 1015.7
20260906171323 61 96 2.0 7.0 0.00 0.02 0.00 64 1016.0
20260906170423 59 77 0.0 8.0 0.00 0.02 0.00 67 1016.2
20260906165523 59 105 2.0 8.0 0.00 0.02 0.00 68 1016.3
20260906162823 58 90 4.0 6.0 0.00 0.02 0.00 75 1016.5
20260906161922 55 127 2.0 8.0 0.00 0.02 0.00 81 1016.8
20260906161023 55 126 2.0 5.0 0.00 0.02 0.00 82 1016.8
20260906160123 53 109 4.0 6.0 0.00 0.02 0.00 86 1016.8
20260906155223 51 92 1.0 3.0 0.00 0.02 0.00 95 1016.8
20260906154322 49 75 0.0 2.0 0.00 0.02 0.00 96 1016.9
20260906153422 49 39 1.0 4.0 0.00 0.02 0.00 98 1017.0
20260906152522 47 90 2.0 7.0 0.00 0.02 0.00 98 1017.1
20260906151622 47 94 0.0 5.0 0.00 0.02 0.00 99 1017.1
20260906150723 46 105 1.0 3.0 0.00 0.02 0.00 99 1017.2
20260906145822 46 108 2.0 3.0 0.00 0.02 0.00 99 1017.2
20260906144922 45 37 0.0 3.0 0.00 0.02 0.00 99 1017.4
20260906144022 44 335 1.0 4.0 0.00 0.02 0.00 99 1017.4
20260906143122 44 314 2.0 2.0 0.00 0.02 0.00 99 1017.3
20260906142222 44 314 0.0 2.0 0.00 0.02 0.00 99 1017.4
20260906141322 44 317 1.0 2.0 0.00 0.02 0.00 99 1017.4
20260906140422 44 314 0.0 2.0 0.00 0.02 0.00 99 1017.4
20260906135524 43 334 1.0 3.0 0.00 0.02 0.00 99 1017.4
20260906133722 43 334 2.0 4.0 0.00 0.02 0.00 99 1017.4
20260906132822 42 334 3.0 4.0 0.00 0.02 0.00 99 1017.3
20260906131922 42 332 2.0 5.0 0.00 0.02 0.00 99 1017.4
20260906131022 42 314 4.0 5.0 0.00 0.02 0.00 99 1017.3
20260906130122 42 320 4.0 5.0 0.00 0.02 0.00 99 1017.4
20260906124322 42 332 2.0 4.0 0.00 0.02 0.00 99 1017.6
20260906123422 42 339 2.0 4.0 0.00 0.02 0.00 99 1017.4
20260906122522 42 352 3.0 5.0 0.00 0.02 0.00 99 1017.3
20260906121622 42 337 4.0 5.0 0.00 0.02 0.00 98 1017.2
20260906120722 42 329 4.0 5.0 0.00 0.02 0.00 98 1017.4
20260906115822 42 331 4.0 5.0 0.00 0.02 0.00 98 1017.6
20260906114922 41 320 4.0 7.0 0.00 0.02 0.00 98 1017.5
20260906114022 41 314 4.0 5.0 0.00 0.02 0.00 98 1017.4
20260906113122 41 318 4.0 5.0 0.00 0.02 0.00 98 1017.6
20260906112222 42 326 4.0 5.0 0.00 0.02 0.00 98 1017.4
20260906111322 42 312 3.0 6.0 0.00 0.02 0.00 97 1017.7
20260906110422 42 321 4.0 5.0 0.00 0.02 0.00 97 1017.7
20260906104622 42 319 4.0 6.0 0.00 0.02 0.00 97 1018.0
20260906103722 42 324 4.0 6.0 0.00 0.02 0.00 97 1018.1
20260906102822 42 316 4.0 6.0 0.00 0.02 0.00 97 1018.1
20260906101922 42 290 4.0 7.0 0.00 0.02 0.00 96 1018.2
20260906100122 42 314 4.0 6.0 0.00 0.02 0.00 96 1018.0
20260906095222 42 314 5.0 7.0 0.00 0.02 0.00 95 1017.9
20260906094322 42 314 5.0 7.0 0.00 0.02 0.00 95 1017.8
20260906093422 43 314 5.0 7.0 0.00 0.02 0.00 95 1017.9
20260906092522 43 314 6.0 7.0 0.00 0.02 0.00 95 1017.8
20260906091622 43 292 4.0 7.0 0.00 0.02 0.00 94 1017.8
20260906090722 44 270 4.0 6.0 0.00 0.02 0.00 94 1017.5
20260906084922 44 285 5.0 6.0 0.00 0.02 0.00 94 1017.7
20260906084022 44 270 4.0 6.0 0.00 0.02 0.00 94 1017.8
20260906083122 44 270 4.0 7.0 0.00 0.02 0.00 93 1017.9
20260906075521 45 314 5.0 7.0 0.00 0.02 0.00 93 1018.1
20260906074622 45 316 4.0 7.0 0.00 0.02 0.00 93 1018.1
20260906073721 45 319 5.0 7.0 0.00 0.02 0.00 93 1018.1
20260906072822 45 318 5.0 7.0 0.00 0.02 0.00 93 1018.2
20260906071921 46 314 5.0 8.0 0.00 0.02 0.00 92 1018.2
20260906070121 46 314 4.0 8.0 0.00 0.02 0.00 91 1018.2
20260906065221 47 320 6.0 8.0 0.00 0.02 0.01 91 1018.3
20260906064322 47 314 6.0 8.0 0.00 0.02 0.01 90 1018.2
20260906063422 47 314 4.0 8.0 0.00 0.02 0.01 89 1018.3
20260906062521 48 314 4.0 8.0 0.00 0.02 0.01 89 1018.2
20260906061621 48 314 5.0 8.0 0.00 0.02 0.01 88 1018.2
20260906060722 48 314 4.0 8.0 0.00 0.02 0.01 86 1018.1
20260906055822 49 328 6.0 8.0 0.00 0.02 0.01 85 1018.2
20260906054924 49 316 4.0 8.0 0.00 0.02 0.01 85 1018.1
20260906054033 50 314 4.0 9.0 0.00 0.02 0.01 84 1018.0